sat.trackr.live / text

‹ back to catalog

WILDFIRE 1

NORAD 57764 · 2023-133H

PAYLOAD ACTIVE UNKNOWN

§ Identity

Operator
Country
US
Launch date
2023-09-02
Launch site
AFWTR
Launch vehicle
Mass (kg)
RCS (m²)

External: N2YO · Heavens-Above · Gunter

§ Orbital elements

Epoch: 2026-09-21T11:55:13.123488Z

Period
103.92 min
Inclination
80.9960°
Eccentricity
0.0007606
Mean motion
13.85745379 rev/d
Perigee alt
938.0 km
Apogee alt
949.1 km
Semi-major
7,321.7 km
B*
7.4745e-5
RAAN
274.4625°
Arg perigee
100.1443°
Mean anomaly
260.0572°
Rev number
15,439

§ Raw data

WILDFIRE 11 57764U 23133H   26264.49667967  .00000097  00000+0  74745-4 0  99912 57764  80.9960 274.4625 0007606 100.1443 260.0572 13.85745379154391

JSON: /api/v1/satellites/57764 · /tle

For live sub-satellite position, see the globe view (requires WebGL).

§ Visibility from observer

Set your observer location to see the next 7 days of passes ≥ 10°. The values pass through the URL so the page stays shareable.

No JS? Fill the form by hand. The geolocation button needs JavaScript.

§ Radio — SatNOGS DB

ModeDescriptionDownlinkUplink
FM S-band telemetry 2.278 GHz

1 transmitter · refreshed weekly from db.satnogs.org